Location: Lowman
(44.0835°N, 115.6207°W)
Time: 21:13:18
(UTC+00:00)

X-37B - Visible Passes

Search period start: 04 December 2022 00:00
Search period end: 14 December 2022 00:00
Orbit: 277 x 277 km, 45.0° (Epoch: 01 November)

Date Brightness Start Highest point End Pass type
(mag) Time Alt. Az. Time Alt. Az. Time Alt. Az.
08 Dec 2.5 01:00:25 10° S 01:01:36 13° SSE 01:02:46 10° ESE visible
09 Dec 1.8 01:00:11 10° SSW 01:02:07 21° SSE 01:03:34 13° ESE visible
10 Dec 1.1 01:00:26 10° SW 01:02:42 33° SSE 01:04:15 16° E visible
11 Dec 0.3 01:00:56 10° WSW 01:03:20 54° SSE 01:04:54 18° E visible
12 Dec -0.1 01:01:33 10° WSW 01:04:00 82° SSE 01:05:33 20° E visible
13 Dec -0.2 01:02:14 10° W 01:04:42 77° N 01:06:12 20° ENE visible
